Time,TemperatureF,DewpointF,PressureIn,WindDirection,WindDirectionDegrees,WindSpeedMPH,WindSpeedGustMPH,Humidity,HourlyPrecipIn,Conditions,Clouds,dailyrainin,SoftwareType,DateUTC
2013-03-06 00:11:00,41.1,41.0,29.71,West,270,0.0,1.0,98,0.00,,,0.00,weatherlink.com 1.10,2013-03-06 08:11:00,
2013-03-06 00:26:00,41.2,41.0,29.70,West,271,0.0,1.0,98,0.00,,,0.00,weatherlink.com 1.10,2013-03-06 08:26:00,
2013-03-06 00:41:00,41.0,41.0,29.69,WSW,257,0.0,2.0,98,0.00,,,0.00,weatherlink.com 1.10,2013-03-06 08:41:00,
2013-03-06 00:56:00,40.6,40.0,29.69,WSW,256,1.0,1.0,98,0.00,,,0.00,weatherlink.com 1.10,2013-03-06 08:56:00,
2013-03-06 01:11:00,40.2,40.0,29.69,West,262,1.0,1.0,98,0.00,,,0.00,weatherlink.com 1.10,2013-03-06 09:11:00,
2013-03-06 01:26:00,40.1,40.0,29.68,WNW,296,0.0,2.0,98,0.00,,,0.00,weatherlink.com 1.10,2013-03-06 09:26:00,
2013-03-06 01:41:00,40.1,40.0,29.67,SW,224,0.0,2.0,98,0.00,,,0.00,weatherlink.com 1.10,2013-03-06 09:41:00,
2013-03-06 01:56:00,40.1,40.0,29.67,WNW,293,2.0,2.0,98,0.00,,,0.00,weatherlink.com 1.10,2013-03-06 09:56:00,
2013-03-06 02:11:00,40.4,40.0,29.66,SW,218,0.0,1.0,98,0.00,,,0.00,weatherlink.com 1.10,2013-03-06 10:11:00,
2013-03-06 02:26:00,40.3,40.0,29.65,WSW,243,1.0,1.0,98,0.00,,,0.00,weatherlink.com 1.10,2013-03-06 10:26:00,
2013-03-06 02:41:00,40.4,40.0,29.64,SW,225,0.0,1.0,98,0.00,,,0.00,weatherlink.com 1.10,2013-03-06 10:41:00,
2013-03-06 02:56:00,40.5,40.0,29.63,East,86,1.0,1.0,98,0.00,,,0.00,weatherlink.com 1.10,2013-03-06 10:56:00,
2013-03-06 03:11:00,41.2,40.0,29.62,NNW,339,0.0,5.0,97,0.00,,,0.00,weatherlink.com 1.10,2013-03-06 11:11:00,
2013-03-06 03:26:00,41.5,41.0,29.62,WSW,248,1.0,3.0,96,0.00,,,0.00,weatherlink.com 1.10,2013-03-06 11:26:00,
2013-03-06 03:41:00,41.9,41.0,29.62,North,4,0.0,9.0,95,0.00,,,0.00,weatherlink.com 1.10,2013-03-06 11:41:00,
2013-03-06 03:56:00,42.0,40.0,29.62,NNW,342,0.0,5.0,94,0.00,,,0.00,weatherlink.com 1.10,2013-03-06 11:56:00,
2013-03-06 04:11:00,41.9,41.0,29.61,South,187,2.0,2.0,95,0.00,,,0.00,weatherlink.com 1.10,2013-03-06 12:11:00,
2013-03-06 04:26:00,42.2,41.0,29.61,WNW,284,0.0,4.0,94,0.00,,,0.00,weatherlink.com 1.10,2013-03-06 12:26:00,
2013-03-06 04:41:00,42.2,41.0,29.60,SE,141,0.0,5.0,94,0.00,,,0.00,weatherlink.com 1.10,2013-03-06 12:41:00,
2013-03-06 04:56:00,42.3,41.0,29.60,NNE,32,2.0,4.0,94,0.00,,,0.00,weatherlink.com 1.10,2013-03-06 12:56:00,
2013-03-06 05:11:00,42.4,41.0,29.60,NW,314,2.0,6.0,93,0.00,,,0.00,weatherlink.com 1.10,2013-03-06 13:11:00,
2013-03-06 05:27:00,42.4,41.0,29.59,NNW,332,3.0,9.0,93,0.00,,,0.00,weatherlink.com 1.10,2013-03-06 13:27:00,
2013-03-06 05:42:00,42.3,41.0,29.59,North,1,4.0,9.0,93,0.00,,,0.00,weatherlink.com 1.10,2013-03-06 13:42:00,
2013-03-06 05:57:00,42.2,40.0,29.59,NNE,23,4.0,8.0,93,0.00,,,0.00,weatherlink.com 1.10,2013-03-06 13:57:00,
2013-03-06 06:12:00,42.3,40.0,29.58,NNW,335,3.0,6.0,92,0.00,,,0.00,weatherlink.com 1.10,2013-03-06 14:12:00,
2013-03-06 06:27:00,42.1,40.0,29.57,North,1,1.0,6.0,92,0.00,,,0.00,weatherlink.com 1.10,2013-03-06 14:27:00,
2013-03-06 06:42:00,42.2,40.0,29.57,NW,322,0.0,8.0,92,0.00,,,0.00,weatherlink.com 1.10,2013-03-06 14:42:00,
2013-03-06 06:57:00,42.1,40.0,29.57,NW,318,1.0,9.0,91,0.00,,,0.00,weatherlink.com 1.10,2013-03-06 14:57:00,
2013-03-06 07:12:00,42.3,40.0,29.57,NNE,13,4.0,12.0,91,0.00,,,0.00,weatherlink.com 1.10,2013-03-06 15:12:00,
2013-03-06 07:27:00,42.4,40.0,29.57,NNE,32,5.0,12.0,91,0.00,,,0.00,weatherlink.com 1.10,2013-03-06 15:27:00,
2013-03-06 07:42:00,42.7,40.0,29.57,NNE,32,8.0,10.0,91,0.00,,,0.00,weatherlink.com 1.10,2013-03-06 15:42:00,
2013-03-06 07:57:00,42.9,41.0,29.57,NNE,28,5.0,9.0,91,0.00,,,0.00,weatherlink.com 1.10,2013-03-06 15:57:00,
2013-03-06 08:12:00,43.0,41.0,29.58,North,360,4.0,8.0,91,0.00,,,0.00,weatherlink.com 1.10,2013-03-06 16:12:00,
2013-03-06 08:27:00,43.0,40.0,29.58,NNE,15,4.0,9.0,90,0.00,,,0.00,weatherlink.com 1.10,2013-03-06 16:27:00,
2013-03-06 08:42:00,43.2,41.0,29.58,North,6,11.0,11.0,90,0.00,,,0.00,weatherlink.com 1.10,2013-03-06 16:42:00,
2013-03-06 08:57:00,43.2,41.0,29.59,NW,311,6.0,15.0,90,0.00,,,0.00,weatherlink.com 1.10,2013-03-06 16:57:00,
2013-03-06 09:12:00,43.1,40.0,29.59,North,359,2.0,13.0,90,0.00,,,0.00,weatherlink.com 1.10,2013-03-06 17:12:00,
2013-03-06 09:27:00,42.9,41.0,29.59,NNE,22,8.0,11.0,92,0.00,,,0.00,weatherlink.com 1.10,2013-03-06 17:27:00,
2013-03-06 09:42:00,42.8,41.0,29.59,NNW,346,4.0,10.0,92,0.01,,,0.01,weatherlink.com 1.10,2013-03-06 17:42:00,
2013-03-06 09:57:00,42.9,41.0,29.59,NNE,32,5.0,8.0,93,0.02,,,0.02,weatherlink.com 1.10,2013-03-06 17:57:00,
2013-03-06 10:12:00,42.9,41.0,29.60,North,8,4.0,13.0,93,0.03,,,0.03,weatherlink.com 1.10,2013-03-06 18:12:00,
2013-03-06 10:27:00,42.9,41.0,29.60,NNE,26,6.0,9.0,93,0.03,,,0.03,weatherlink.com 1.10,2013-03-06 18:27:00,
2013-03-06 10:42:00,42.9,41.0,29.60,NNW,346,4.0,10.0,93,0.02,,,0.03,weatherlink.com 1.10,2013-03-06 18:42:00,
2013-03-06 10:57:00,42.9,41.0,29.60,NNE,25,5.0,9.0,93,0.01,,,0.03,weatherlink.com 1.10,2013-03-06 18:57:00,
2013-03-06 11:12:00,42.8,41.0,29.61,NNE,28,8.0,10.0,92,0.01,,,0.04,weatherlink.com 1.10,2013-03-06 19:12:00,
2013-03-06 11:27:00,42.8,41.0,29.61,WNW,301,2.0,11.0,93,0.01,,,0.04,weatherlink.com 1.10,2013-03-06 19:27:00,
2013-03-06 11:42:00,42.8,41.0,29.62,North,349,4.0,9.0,93,0.02,,,0.05,weatherlink.com 1.10,2013-03-06 19:42:00,
2013-03-06 11:57:00,42.9,41.0,29.62,NNW,335,6.0,12.0,94,0.02,,,0.05,weatherlink.com 1.10,2013-03-06 19:57:00,
2013-03-06 12:12:00,42.9,41.0,29.62,NW,323,0.0,10.0,93,0.02,,,0.06,weatherlink.com 1.10,2013-03-06 20:12:00,
2013-03-06 12:27:00,43.0,41.0,29.63,NNE,15,3.0,7.0,93,0.02,,,0.06,weatherlink.com 1.10,2013-03-06 20:27:00,
2013-03-06 12:42:00,43.0,41.0,29.63,North,355,3.0,6.0,93,0.02,,,0.07,weatherlink.com 1.10,2013-03-06 20:42:00,
2013-03-06 12:57:00,43.2,42.0,29.64,North,360,3.0,5.0,94,0.02,,,0.07,weatherlink.com 1.10,2013-03-06 20:57:00,
2013-03-06 13:12:00,43.1,41.0,29.64,North,11,4.0,7.0,93,0.02,,,0.08,weatherlink.com 1.10,2013-03-06 21:12:00,
2013-03-06 13:27:00,43.1,41.0,29.64,North,353,3.0,8.0,93,0.02,,,0.08,weatherlink.com 1.10,2013-03-06 21:27:00,
2013-03-06 13:42:00,43.2,42.0,29.65,North,1,3.0,5.0,94,0.01,,,0.08,weatherlink.com 1.10,2013-03-06 21:42:00,
2013-03-06 13:57:00,43.1,41.0,29.65,NNW,342,4.0,5.0,93,0.02,,,0.09,weatherlink.com 1.10,2013-03-06 21:57:00,
2013-03-06 14:12:00,43.0,41.0,29.66,NNW,330,1.0,3.0,94,0.01,,,0.09,weatherlink.com 1.10,2013-03-06 22:12:00,
2013-03-06 14:27:00,43.1,41.0,29.66,ENE,57,0.0,2.0,93,0.02,,,0.10,weatherlink.com 1.10,2013-03-06 22:27:00,
2013-03-06 14:42:00,43.1,41.0,29.67,ESE,103,0.0,2.0,93,0.02,,,0.10,weatherlink.com 1.10,2013-03-06 22:42:00,
2013-03-06 14:57:00,43.1,41.0,29.67,ENE,57,2.0,3.0,93,0.01,,,0.10,weatherlink.com 1.10,2013-03-06 22:57:00,
2013-03-06 15:12:00,42.9,41.0,29.68,NE,43,3.0,4.0,92,0.00,,,0.10,weatherlink.com 1.10,2013-03-06 23:12:00,
2013-03-06 15:27:00,42.8,41.0,29.69,ENE,75,1.0,2.0,92,0.01,,,0.11,weatherlink.com 1.10,2013-03-06 23:27:00,
2013-03-06 15:42:00,42.8,41.0,29.69,East,82,0.0,1.0,93,0.01,,,0.11,weatherlink.com 1.10,2013-03-06 23:42:00,
2013-03-06 15:57:00,42.6,41.0,29.70,NE,53,0.0,2.0,92,0.01,,,0.11,weatherlink.com 1.10,2013-03-06 23:57:00,
2013-03-06 16:12:00,42.5,41.0,29.70,ESE,110,0.0,2.0,93,0.02,,,0.12,weatherlink.com 1.10,2013-03-07 00:12:00,
2013-03-06 16:27:00,42.5,41.0,29.71,SE,124,1.0,1.0,94,0.02,,,0.13,weatherlink.com 1.10,2013-03-07 00:27:00,
2013-03-06 16:42:00,42.4,41.0,29.71,SE,124,0.0,1.0,95,0.03,,,0.14,weatherlink.com 1.10,2013-03-07 00:42:00,
2013-03-06 16:57:00,42.2,41.0,29.72,SE,137,0.0,1.0,96,0.04,,,0.15,weatherlink.com 1.10,2013-03-07 00:57:00,
2013-03-06 17:12:00,42.0,41.0,29.72,SW,231,0.0,0.0,97,0.04,,,0.16,weatherlink.com 1.10,2013-03-07 01:12:00,
2013-03-06 17:27:00,41.9,41.0,29.73,SE,139,0.0,0.0,97,0.04,,,0.17,weatherlink.com 1.10,2013-03-07 01:27:00,
2013-03-06 17:42:00,41.9,41.0,29.73,SSE,165,0.0,0.0,97,0.04,,,0.18,weatherlink.com 1.10,2013-03-07 01:42:00,
2013-03-06 17:57:00,41.8,41.0,29.74,SE,132,1.0,2.0,96,0.05,,,0.20,weatherlink.com 1.10,2013-03-07 01:57:00,
2013-03-06 18:12:00,41.8,41.0,29.74,SE,127,0.0,1.0,96,0.04,,,0.20,weatherlink.com 1.10,2013-03-07 02:12:00,
2013-03-06 18:27:00,41.6,40.0,29.75,ESE,117,1.0,1.0,95,0.04,,,0.21,weatherlink.com 1.10,2013-03-07 02:27:00,
2013-03-06 18:42:00,41.6,40.0,29.75,NNE,30,0.0,2.0,95,0.04,,,0.22,weatherlink.com 1.10,2013-03-07 02:42:00,
2013-03-06 18:57:00,41.4,40.0,29.76,SSE,153,2.0,3.0,94,0.03,,,0.23,weatherlink.com 1.10,2013-03-07 02:57:00,
2013-03-06 19:13:00,41.3,40.0,29.77,ESE,108,1.0,2.0,95,0.04,,,0.24,weatherlink.com 1.10,2013-03-07 03:13:00,
2013-03-06 19:28:00,41.1,40.0,29.77,ESE,108,1.0,1.0,95,0.04,,,0.25,weatherlink.com 1.10,2013-03-07 03:28:00,
2013-03-06 19:43:00,41.1,40.0,29.78,SE,143,0.0,2.0,95,0.04,,,0.26,weatherlink.com 1.10,2013-03-07 03:43:00,
2013-03-06 19:58:00,41.1,40.0,29.78,SE,134,0.0,2.0,95,0.03,,,0.26,weatherlink.com 1.10,2013-03-07 03:58:00,
2013-03-06 20:13:00,41.0,40.0,29.78,SE,127,0.0,1.0,95,0.03,,,0.27,weatherlink.com 1.10,2013-03-07 04:13:00,
2013-03-06 20:28:00,41.1,40.0,29.79,SE,145,0.0,2.0,95,0.03,,,0.28,weatherlink.com 1.10,2013-03-07 04:28:00,
2013-03-06 20:43:00,41.0,40.0,29.79,SW,218,1.0,1.0,96,0.02,,,0.28,weatherlink.com 1.10,2013-03-07 04:43:00,
2013-03-06 20:58:00,40.9,40.0,29.80,SW,218,0.0,1.0,97,0.01,,,0.28,weatherlink.com 1.10,2013-03-07 04:58:00,
2013-03-06 21:13:00,40.8,40.0,29.80,SE,141,0.0,1.0,97,0.02,,,0.29,weatherlink.com 1.10,2013-03-07 05:13:00,
2013-03-06 21:29:00,40.8,40.0,29.81,SE,141,0.0,0.0,98,0.01,,,0.29,weatherlink.com 1.10,2013-03-07 05:29:00,
2013-03-06 21:43:00,40.7,40.0,29.82,SE,141,0.0,1.0,98,0.01,,,0.29,weatherlink.com 1.10,2013-03-07 05:43:00,
2013-03-06 21:58:00,40.8,40.0,29.82,SE,141,0.0,1.0,98,0.01,,,0.29,weatherlink.com 1.10,2013-03-07 05:58:00,
2013-03-06 22:13:00,40.7,40.0,29.83,SE,141,0.0,0.0,98,0.00,,,0.29,weatherlink.com 1.10,2013-03-07 06:13:00,
2013-03-06 22:28:00,40.8,40.0,29.84,SE,141,0.0,0.0,98,0.01,,,0.30,weatherlink.com 1.10,2013-03-07 06:28:00,
2013-03-06 22:43:00,40.7,40.0,29.84,SE,141,0.0,0.0,98,0.01,,,0.30,weatherlink.com 1.10,2013-03-07 06:43:00,
2013-03-06 22:58:00,40.8,40.0,29.85,SE,141,0.0,0.0,98,0.01,,,0.30,weatherlink.com 1.10,2013-03-07 06:58:00,
2013-03-06 23:13:00,40.9,40.0,29.85,SE,141,0.0,0.0,98,0.01,,,0.30,weatherlink.com 1.10,2013-03-07 07:13:00,
2013-03-06 23:28:00,41.1,41.0,29.86,SE,141,0.0,0.0,98,0.01,,,0.31,weatherlink.com 1.10,2013-03-07 07:28:00,
2013-03-06 23:43:00,41.1,41.0,29.86,SE,141,0.0,1.0,98,0.01,,,0.31,weatherlink.com 1.10,2013-03-07 07:43:00,
2013-03-06 23:58:00,41.2,41.0,29.87,SE,143,0.0,2.0,98,0.02,,,0.32,weatherlink.com 1.10,2013-03-07 07:58:00,